Marianna, FL

6:17 PM CDT on April 28, 2017 (GMT -0500)
Marianna Municipal

Weather History for KMAI - August, 2014

Change the Weather History Date:

Friday, August 22, 2014

  Actual Average Record
Temperature  
Mean Temperature 87 °F 81 °F  
Max Temperature 98 °F 91 °F 100 °F (2011)
Min Temperature 75 °F 72 °F 64 °F (1997)
Degree Days  
Heating Degree Days 0    
Month to date heating degree days 0  
Since 1 June heating degree days 0  
Since 1 July heating degree days 0  
Cooling Degree Days 22    
Month to date cooling degree days 411  
Year to date cooling degree days 1865  
Since 1 June cooling degree days 1431  
Growing Degree Days 36 (Base 50)    
Moisture  
Dew Point 76 °F    
Average Humidity 71    
Maximum Humidity 100    
Minimum Humidity 42    
Precipitation  
Precipitation 0.00 in 0.15 in 0.38 in (2002)
Month to date precipitation 3.15 4.21  
Year to date precipitation 42.37 37.11  
Sea Level Pressure  
Sea Level Pressure 30.03 in    
Wind  
Wind Speed 3 mph (NW)    
Max Wind Speed 12 mph    
Max Gust Speed 14 mph    
Visibility 10 miles    
Events      
T = Trace of Precipitation, MM = Missing Value Source: NWS Daily Summary

Daily Weather History Graph

Daily Weather History Graph

Search for Another Location

Airport or City:

Trip Planner

Search our weather history database for the weather conditions in past years. The results will help you decide how hot, cold, wet, or windy it might be!

Date:

Astronomy

Aug. 22, 2014 Rise Set
Actual Time 6:11 AM CDT 7:15 PM CDT
Civil Twilight 5:46 AM CDT 7:40 PM CDT
Nautical Twilight 5:16 AM CDT 8:10 PM CDT
Astronomical Twilight 4:45 AM CDT 8:40 PM CDT
Moon 3:38 AM CDT (8/22) 5:19 PM CDT (8/22)
Length of Visible Light 13h 54m
Length of Day
13h 04m
Waning Crescent, 7% of the Moon is Illuminated
Aug 22
Waning Crescent
Aug 25
New
Sep 2
First Quarter
Sep 8
Full
Sep 15
Last Quarter

Hourly Weather History & Observations

Time (CDT) Temp. Heat Index Dew Point Humidity Pressure Visibility Wind Dir Wind Speed Gust Speed Precip Events Conditions
12:53 AM 79.0 °F - 75.9 °F 90% 30.08 in 10.0 mi Calm Calm - N/A   Clear
1:53 AM 79.0 °F - 75.0 °F 88% 30.06 in 10.0 mi Calm Calm - N/A   Clear
2:53 AM 78.1 °F - 75.0 °F 90% 30.04 in 10.0 mi Calm Calm - N/A   Clear
4:53 AM 75.0 °F - 75.0 °F 100% 30.04 in 10.0 mi Calm Calm - N/A   Clear
5:53 AM 75.0 °F - 75.0 °F 100% 30.06 in 10.0 mi Calm Calm - N/A   Clear
7:53 AM 80.1 °F 86.4 °F 78.1 °F 94% 30.09 in 10.0 mi Variable 3.5 mph - N/A   Clear
8:53 AM 84.9 °F 96.6 °F 78.1 °F 80% 30.09 in 10.0 mi NW 5.8 mph - N/A   Clear
9:53 AM 89.1 °F 103.2 °F 78.1 °F 70% 30.09 in 10.0 mi NNW 4.6 mph - N/A   Clear
10:53 AM 93.0 °F 106.7 °F 77.0 °F 59% 30.09 in 10.0 mi North 5.8 mph - N/A   Clear
11:53 AM 93.0 °F 105.3 °F 75.9 °F 57% 30.08 in 10.0 mi NNE 6.9 mph - N/A   Mostly Cloudy
12:53 PM 93.9 °F 104.0 °F 73.9 °F 52% 30.06 in 10.0 mi North 6.9 mph - N/A   Mostly Cloudy
1:53 PM 96.1 °F 105.6 °F 73.0 °F 47% 30.03 in 10.0 mi North 5.8 mph - N/A   Partly Cloudy
2:53 PM 95.0 °F 106.7 °F 75.0 °F 52% 30.00 in 10.0 mi Variable 4.6 mph - N/A   Mostly Cloudy
4:53 PM 95.0 °F 105.2 °F 73.9 °F 50% 29.99 in 10.0 mi West 6.9 mph - N/A   Mostly Cloudy
5:53 PM 91.0 °F 102.9 °F 75.9 °F 61% 29.97 in 10.0 mi WSW 6.9 mph - N/A   Clear
6:53 PM 86.0 °F 96.9 °F 77.0 °F 74% 29.98 in 10.0 mi SSW 8.1 mph - N/A   Clear
7:53 PM 82.9 °F 91.8 °F 77.0 °F 82% 29.99 in 10.0 mi SSW 4.6 mph - N/A   Clear
8:53 PM 82.0 °F 91.0 °F 78.1 °F 88% 29.99 in 10.0 mi SW 3.5 mph - N/A   Clear
9:53 PM 82.0 °F 91.0 °F 78.1 °F 88% 30.00 in 10.0 mi Calm Calm - N/A   Clear
10:53 PM 80.1 °F 86.4 °F 78.1 °F 94% 30.00 in 10.0 mi Calm Calm - N/A   Clear
11:53 PM 80.1 °F 86.4 °F 78.1 °F 94% 29.99 in 10.0 mi Calm Calm - N/A   Clear